Dewpoint
53 53 53 54 53 53 53 53 54 54 54 53 54 55 55 55 56 56 56 56 56 56 57 57 58 60 54 34 31 49 73 72 62 38 28 26 29 33 34 34 34 52 52 52 57 56 55
52 53 53 53 53 53 53 53 53 53 53 54 54 54 55 55 55 56 56 56 56 56 56 57 59 60 50 19 17 54 53 54 38 28 24 26 30 34 30 32 36 34 46 48 53 55 55
51 52 52 52 53 53 53 53 53 53 53 53 53 54 54 55 55 55 55 55 55 55 56 57 59 58 46 20 36 34 38 42 35 33 25 26 26 27 31 32 34 33 33 39 54 55 54
53 51 51 51 53 52 54 53 53 53 53 53 53 54 54 54 55 55 55 54 55 56 57 58 60 54 31 30 41 41 31 29 30 33 31 30 30 30 31 31 32 35 36 32 50 54 55
52 52 51 51 51 52 53 53 53 53 53 54 54 54 54 54 54 54 54 54 55 57 58 59 51 46 35 45 37 35 28 25 21 20 23 24 30 28 30 31 31 33 31 33 39 53 53
51 51 51 51 52 53 53 53 53 53 54 55 55 55 54 54 54 54 53 53 54 55 55 56 52 35 30 25 33 24 27 21 19 17 18 26 31 29 30 30 28 30 30 31 32 42 47
51 50 51 50 51 51 52 53 52 53 53 54 54 55 54 54 54 53 51 46 40 40 48 32 23 28 29 31 34 26 22 18 16 15 15 17 25 27 29 30 32 32 32 31 31 31 33
50 51 51 51 52 51 52 52 53 53 53 53 54 54 54 54 53 53 50 41 42 41 36 37 39 37 37 37 37 35 18 16 14 12 17 14 17 25 30 31 31 30 27 25 27 30 40
51 51 51 51 51 51 53 53 54 54 54 54 54 54 54 53 53 50 45 44 44 45 36 36 37 38 37 39 37 35 14 13 10 11 14 13 14 17 21 18 19 19 22 22 23 21 28
52 51 50 50 51 52 53 54 54 55 54 54 54 54 54 52 48 46 44 47 47 41 31 29 31 32 38 35 29 28 17 16 19 10 13 14 15 14 14 13 17 14 17 20 17 16 13
52 51 51 52 51 53 54 54 54 55 55 54 54 54 53 52 46 43 42 48 47 36 11 28 26 31 31 26 21 19 19 16 14 14 15 13 12 13 13 11 13 11 12 10 11 12 31
51 52 51 51 53 54 54 54 55 54 54 54 54 53 52 49 47 48 49 47 37 24 13 23 25 28 28 26 25 20 17 15 16 13 14 13 14 10 10 11 11 10 8 11 18 21 11
51 51 51 52 52 54 52 53 54 54 54 53 53 52 50 48 43 47 48 39 21 19 26 21 20 22 19 20 21 21 20 14 12 9 10 12 12 12 11 9 11 10 6 6 9 5 6
51 52 53 53 52 54 54 55 54 54 53 53 51 50 49 48 48 48 41 35 27 26 30 24 22 20 18 19 19 19 18 14 12 13 11 9 9 10 10 9 6 8 6 6 2 4 6
52 52 51 51 52 54 55 54 54 54 53 52 50 47 47 48 49 48 37 29 20 31 29 25 21 18 17 19 22 18 16 15 12 12 10 10 9 14 12 11 10 11 14 7 5 15 5
52 52 51 51 52 54 54 54 54 53 53 51 47 47 47 49 48 42 35 32 35 33 31 21 19 18 17 16 20 20 18 16 14 13 13 16 9 10 11 12 13 10 8 4 6 8 9
52 52 52 52 54 54 55 54 54 53 52 51 49 45 48 49 43 38 26 33 34 34 33 27 21 23 20 19 20 18 22 22 26 16 13 12 11 10 11 9 8 8 9 7 6 8 5
54 54 53 52 52 54 55 54 53 52 51 48 49 44 48 44 37 38 34 35 36 33 34 34 23 23 21 21 19 18 26 24 35 35 16 20 10 9 10 10 14 12 9 6 5 3 9
54 54 53 52 52 55 55 54 53 52 51 45 45 48 44 40 35 34 34 35 35 33 33 29 30 30 29 26 28 23 28 29 44 43 42 27 15 10 10 11 15 12 9 7 5 7 5
54 54 54 54 54 55 55 54 53 52 52 47 47 43 38 41 39 40 38 35 32 34 31 32 32 32 28 28 28 29 29 30 44 44 56 40 30 16 11 14 20 25 24 18 12 8 11
53 53 53 54 55 55 55 54 53 52 51 48 46 41 38 33 32 33 32 33 31 31 31 30 31 32 34 29 29 31 34 37 39 50 43 37 34 39 36 32 35 31 33 34 21 16 18
53 53 53 54 55 55 55 55 54 52 51 46 38 36 36 34 36 33 35 31 32 32 32 29 28 28 31 30 26 24 34 37 36 43 41 40 37 40 34 36 35 32 33 31 27 19 17
52 52 52 53 54 55 55 55 54 53 48 44 46 44 37 35 35 34 32 32 31 31 31 33 32 29 29 30 30 27 32 38 38 43 41 40 36 35 33 35 33 30 30 36 35 34 25
53 53 53 53 53 54 55 55 54 53 51 45 46 46 37 31 35 34 34 32 30 32 31 32 32 32 32 35 30 28 39 39 45 46 44 41 38 36 33 34 28 32 37 38 39 44 43
53 53 53 53 52 53 54 54 54 53 53 46 46 44 38 32 35 32 32 32 34 33 33 32 34 33 33 30 27 26 32 33 33 43 44 41 41 36 33 32 33 34 38 38 37 38 43
53 53 53 53 53 52 53 53 53 53 52 47 46 48 44 38 34 36 36 36 33 32 32 32 32 32 31 26 26 23 24 32 30 40 44 44 41 36 39 34 32 35 42 46 43 36 43
54 54 54 54 53 53 52 53 53 53 53 48 46 47 46 42 41 40 37 37 38 35 33 33 34 33 32 27 22 25 25 34 32 36 39 40 41 37 39 37 39 41 47 45 36 35 45
55 55 55 54 54 53 52 52 52 52 53 49 45 48 46 43 44 44 44 41 40 37 34 35 31 31 32 32 30 29 27 31 41 41 40 39 38 39 39 37 34 48 46 40 42 46 47
56 55 55 55 55 54 53 52 51 51 52 50 44 47 48 44 41 45 45 44 44 42 38 37 32 33 34 32 31 32 31 43 41 38 45 39 41 41 42 41 42 49 46 48 48 48 49
Lifted_Index
16 17 17 17 17 17 18 18 18 18 18 18 17 16 16 16 16 16 17 17 17 17 17 16 15 14 13 11 10 9 6 6 7 7 5 4 5 5 5 4 3 2 1 -1 -3 -3 -3
17 17 17 17 17 18 18 18 18 18 18 18 17 16 16 16 16 16 16 17 17 17 16 16 15 13 12 11 11 10 8 8 9 8 5 4 5 5 5 5 4 3 1 -1 -2 -3 -3
17 17 17 18 18 18 18 18 18 19 19 19 18 16 15 16 16 16 16 16 16 16 16 15 14 12 11 11 11 11 11 10 10 9 6 5 6 6 6 5 4 3 1 -0 -2 -3 -3
17 18 18 18 18 18 18 18 18 19 19 19 18 16 16 16 16 16 16 16 16 16 15 14 13 12 11 12 12 12 11 11 10 9 7 7 7 6 5 5 3 2 1 0 -2 -3 -3
17 18 18 18 18 18 18 18 18 19 19 18 17 16 16 16 16 16 16 15 15 15 14 14 13 12 11 11 12 12 12 11 10 9 7 7 7 6 5 4 3 2 1 0 -1 -2 -3
17 17 18 18 18 18 18 18 18 19 19 18 17 16 16 16 16 16 15 14 13 13 12 12 12 11 11 11 11 12 12 11 10 8 6 5 5 4 4 4 3 2 2 1 -0 -1 -1
17 17 18 18 18 19 19 19 19 19 18 18 16 16 16 16 16 15 14 12 11 11 10 11 11 10 11 11 11 11 11 11 10 8 6 5 4 4 4 4 3 2 2 1 1 0 0
16 17 17 18 18 19 19 19 19 18 18 17 16 16 16 16 16 14 12 11 11 10 9 10 10 10 10 10 10 11 11 10 9 8 7 6 4 4 4 4 4 3 2 1 1 1 1
16 16 17 18 18 18 18 18 18 18 17 16 15 16 16 16 15 13 11 11 11 10 9 8 9 9 10 10 10 10 10 10 8 7 7 6 5 5 5 4 4 3 2 2 1 1 0
15 16 17 17 18 18 18 18 18 17 16 15 15 16 16 15 13 11 11 10 10 9 7 7 8 9 9 9 9 10 10 10 8 7 7 6 5 5 5 4 4 4 3 2 1 1 0
15 16 16 17 17 17 17 17 18 17 16 15 15 15 15 14 12 10 10 10 10 8 5 6 8 8 9 9 9 9 10 9 8 8 7 6 5 5 4 4 4 4 3 2 1 1 1
14 15 16 17 17 17 17 17 17 17 16 15 15 15 14 13 11 10 9 9 8 6 5 6 7 8 8 8 8 8 8 8 7 7 7 6 6 5 4 4 4 4 3 2 2 1 1
14 14 15 16 17 17 17 17 17 17 16 15 14 13 12 12 10 9 9 8 6 5 6 6 7 7 7 7 7 7 7 6 6 6 6 5 5 5 5 4 3 3 3 2 1 1 1
13 14 15 15 16 16 16 17 17 16 15 14 13 11 11 10 9 9 8 7 5 5 6 6 6 6 6 6 6 6 6 5 5 5 5 4 4 4 5 4 3 3 2 1 1 0 1
13 13 14 15 15 15 15 16 16 15 14 12 10 9 9 9 9 8 7 6 5 6 6 5 5 4 5 5 5 6 5 4 4 5 4 3 3 4 4 4 3 2 2 1 1 1 1
12 13 14 14 14 14 15 15 15 14 12 10 8 7 7 8 8 8 7 6 6 5 5 4 4 4 4 4 5 5 4 4 4 4 4 4 3 3 3 3 3 2 1 1 1 1 0
12 12 13 14 14 14 14 14 14 13 11 8 6 5 6 7 7 7 6 6 5 5 4 3 3 3 3 4 4 3 3 3 3 3 4 4 3 2 2 2 2 2 1 1 1 0 0
11 12 13 13 13 13 13 13 13 13 11 7 4 4 5 6 6 6 5 5 4 4 3 3 2 2 3 3 3 2 2 2 2 2 3 3 3 2 2 2 2 1 1 1 1 0 0
9 10 12 13 13 13 13 13 12 12 10 7 4 3 4 4 4 4 3 3 3 3 3 2 2 2 2 2 2 2 2 1 0 0 1 2 2 2 1 2 1 1 1 1 1 1 1
8 9 10 11 12 12 12 13 12 11 9 6 3 2 3 3 3 2 2 2 2 2 2 2 2 2 1 1 1 1 1 1 -0 -1 -0 0 1 1 1 1 1 1 1 1 1 1 1
9 9 9 10 10 11 11 12 12 11 8 6 4 3 3 3 2 2 2 2 2 1 2 2 2 2 2 1 1 1 1 0 -0 -1 -1 -0 0 1 1 1 1 1 1 1 1 1 1
10 10 9 9 10 10 10 10 11 11 10 7 6 4 4 3 3 3 3 2 2 2 2 2 2 2 2 1 1 1 1 1 -0 -1 -1 -1 -0 0 0 1 1 1 2 2 2 1 1
10 10 10 10 10 10 9 9 10 10 10 9 8 7 6 5 5 5 4 3 3 3 2 2 2 2 2 2 2 2 2 1 0 -0 -0 -0 0 0 0 1 1 1 1 1 1 1 1
10 10 10 11 10 10 10 9 9 9 9 8 8 7 6 6 6 6 5 5 5 4 3 3 3 3 3 3 3 3 3 2 1 1 0 0 0 1 1 1 1 1 1 1 0 1 1
9 9 10 10 10 10 10 10 9 9 8 8 7 7 6 6 6 6 5 6 6 5 5 4 4 4 4 4 3 3 3 2 2 1 1 1 1 1 1 2 2 2 1 0 0 1 1
8 8 8 9 9 10 10 10 9 9 8 8 7 7 7 6 6 6 6 6 6 6 5 5 5 5 5 4 3 3 3 3 2 2 1 1 1 1 1 1 2 1 1 0 1 1 1
7 7 8 8 8 9 9 10 9 9 9 9 8 8 7 6 6 6 6 6 6 6 5 5 5 5 5 4 3 3 3 3 3 2 1 1 1 0 1 1 1 1 1 0 1 1 1
8 7 7 7 7 8 9 10 10 10 10 10 10 9 9 7 6 7 7 7 7 6 6 6 5 5 4 4 3 3 3 3 2 1 1 1 0 0 0 1 1 1 0 0 1 1 1
8 8 7 7 7 8 9 10 10 11 12 12 11 11 10 8 7 8 9 8 8 7 7 6 5 5 4 4 3 3 2 2 1 1 1 0 0 0 0 0 1 0 0 0 1 1 1